Regional Weather Roundup
Issued by NWS

Home | Current Version | Previous Version | Text Only | Print | Product List | Glossary Off
Versions: 1 2 3 4 5 6 7 8 9 10 11 12 13 14 15 16 17 18 19 20 21 22 23 24 25 26 27 28 29 30 31 32 33 34 35 36 37 38 39 40 41 42 43 44 45 46 47 48 49 50

000
ASUS43 KMPX 210910
RWRMN
WEATHER ROUNDUP FOR MINNESOTA
NATIONAL WEATHER SERVICE TWIN CITIES/CHANHASSEN MN
400 AM CDT TUE APR 21 2015


NOTE: "FAIR" INDICATES FEW OR NO CLOUDS BELOW 12,000 FEET WITH NO
SIGNIFICANT WEATHER AND/OR OBSTRUCTIONS TO VISIBILITY. N/A MEANS
CURRENT SKY AND/OR WEATHER CONDITIONS ARE NOT AVAILABLE.

MNZ060>063-068>070-211000-
   Twin Cities Metro

CITY           SKY/WX    TMP DP  RH WIND       PRES   REMARKS
TWIN CITIES    CLOUDY    36  26  67 W16       29.52S
ST PAUL        CLOUDY    36  26  67 W21G29    29.53R
CRYSTAL        CLOUDY    37  26  64 NW13      29.51S
BLAINE         CLOUDY    37  27  65 NW20G26   29.50S
LAKEVILLE      CLOUDY    34  27  75 W17G23    29.53S WCI  23
EDEN PRAIRIE   FLURRIES  37  25  61 W22G29    29.53S
SOUTH ST PAUL  CLOUDY    37  26  66 W17G25    29.52S
LAKE ELMO      CLOUDY    36  28  75 NW14G20   29.51S
$$
MNZ001>005-007-008-013>017-022>024-027-028-211000-
   Northwest Minnesota

CITY           SKY/WX    TMP DP  RH WIND       PRES   REMARKS
BEMIDJI        FLURRIES  29  26  87 NW17G24   29.48R WCI  17
HALLOCK        FLURRIES  32  30  93 N24       29.62R WCI  19
ROSEAU         LGT SNOW  30  27  86 NW20G25   29.53R WCI  18
WARROAD        FLURRIES  30  27  86 NW15G24   29.51R WCI  19
THIEF RVR FALL CLOUDY    30  25  80 NW20G28   29.57R WCI  18
CROOKSTON      CLOUDY    34  28  80 N25       29.61R WCI  21
FOSSTON        CLOUDY    28  27  93 NW15G22   29.54S WCI  17
DETROIT LAKES  CLOUDY    32  30  93 NW17G23   29.57S WCI  21
MOORHEAD       CLOUDY    34  27  75 NW20      29.63S WCI  22
PARK RAPIDS    CLOUDY    35  25  66 NW21G26   29.49S WCI  24
MAHNOMEN       CLOUDY    31  27  86 NW22      29.56R WCI  18
$$
MNZ006-009>011-018-025>026-211000-
   North Central Minnesota

CITY           SKY/WX    TMP DP  RH WIND       PRES   REMARKS
BAUDETTE       CLOUDY    30  25  81 N22G31    29.45R WCI  17
FLAG ISLAND    CLOUDY    30  27  86 N23G30    29.48R WCI  17
INTL FALLS     LGT SNOW  30  27  88 N16G28    29.38R FOG     WCI  19
WASKISH        LGT SNOW  30  28  93 NW16      29.46R WCI  19
BIG FORK       LGT SNOW  30  27  86 W7G16     29.40S WCI  23
LONGVILLE      CLOUDY    30  25  80 W15G22    29.45S WCI  19
GRAND RAPIDS   CLOUDY    30  23  74 NW20G29   29.40S WCI  18
CRANE LAKE     CLOUDY    30  28  93 NW3       29.35R
ORR            LGT SNOW  30  27  86 NW14G20   29.32S WCI  20
COOK           LGT SNOW  30  28  93 W12       29.35R WCI  21
$$
MNZ012-019>021-037-211000-
   Northeast Minnesota

CITY           SKY/WX    TMP DP  RH WIND       PRES   REMARKS
DULUTH         FLURRIES  31  26  82 W13G23    29.34S WCI  21
ELY            LGT SNOW  30  30 100 W7        29.29R WCI  23
HIBBING        LGT SNOW  31  25  78 NW14      29.36S WCI  21
EVELETH        LGT SNOW  32  30  93 W13G23    29.35S WCI  22
DULUTH HARBOR  CLOUDY    36  30  80 W16       29.39S
TWO HARBORS    CLOUDY    36  28  75 W10G20    29.31S
SILVER BAY     CLOUDY    34  28  80 W5        29.28S WCI  30
GRAND MARAIS     N/A     35  31  85 W6        29.24S WCI  30
G MARAIS ARPRT LGT SNOW  28  25  86 W7        29.20S WCI  21
$$
MNZ029>031-032-039>041-046>048-054>057-064-211000-
   West Central Minnesota

CITY           SKY/WX    TMP DP  RH WIND       PRES   REMARKS
FERGUS FALLS   CLOUDY    32  25  74 NW20      29.63S WCI  20
WHEATON        CLOUDY    32  25  74 NW21      29.68R WCI  20
MORRIS         CLOUDY    34  28  80 NW20G29   29.63R WCI  22
ALEXANDRIA     CLOUDY    32  23  69 NW22G31   29.58S WCI  19
ELBOW LAKE     CLOUDY    32  26  79 NW16G22   29.61S WCI  21
WADENA         CLOUDY    30  25  80 NW17G24   29.53S WCI  18
GLENWOOD       CLOUDY    32  25  74 NW24G32   29.58S WCI  19
APPLETON       PTCLDY    36  27  69 NW22G28   29.65R
BENSON         FLURRIES  34  28  80 N18G25    29.63R WCI  23
ORTONVILLE     MOCLDY    36  25  64 NW21G28   29.66S
MADISON        PTCLDY    36  28  75 NW14      29.67R
WILLMAR        MOCLDY    36  30  80 NW18G25   29.62R
$$
MNZ033>034-036-042>043-049>051-058-059-211000-
   Central Minnesota

CITY           SKY/WX    TMP DP  RH WIND       PRES   REMARKS
ST CLOUD       CLOUDY    34  23  64 W20G36    29.52S WCI  23
SAUK CENTRE    CLOUDY    32  24  72 NW18G26   29.56R WCI  20
PAYNESVILLE    CLOUDY    32  25  75 W17G29    29.58R WCI  20
AITKIN         FLURRIES  34  25  69 W8        29.44R WCI  27
PINE RIVER     CLOUDY    30  25  80 NW8G20    29.52R WCI  23
BRAINERD       CLOUDY    32  24  72 NW16G24   29.49S WCI  21
STAPLES        CLOUDY    30  25  80 W16       29.52S WCI  19
LONG PRAIRIE   CLOUDY    32  23  69 W16       29.55S WCI  21
LITTLE FALLS   CLOUDY    32  23  69 NW12G22   29.52S WCI  23
LITCHFIELD     CLOUDY    36  30  80 W17G24    29.57S
BUFFALO        CLOUDY    36  26  66 W16G28    29.54S
MAPLE LAKE     CLOUDY    36  28  71 W17G26    29.54S
$$
MNZ037-044-045-052-053-211000-
   East Central Minnesota

CITY           SKY/WX    TMP DP  RH WIND       PRES   REMARKS
PRINCETON      CLOUDY    36  27  69 W14G20    29.50S
MORA           CLOUDY    32  27  80 W9        29.49R WCI  24
CAMBRIDGE      CLOUDY    36  25  64 W14G22    29.47S
RUSH CITY      CLOUDY    33  26  72 NW12G20   29.48R WCI  25
MOOSE LAKE     LGT SNOW  32  28  86 W9        29.41R WCI  24
HINCKLEY       CLOUDY    32  28  86 W9G16     29.45S WCI  24
CLOQUET        CLOUDY    30  27  86 W12G24    29.38R WCI  21
MCGREGOR       CLOUDY    32  28  86 W10       29.44R WCI  24
$$
MNZ071>073-080-081-089-090-097-098-211000-
   Southwest Minnesota

CITY           SKY/WX    TMP DP  RH WIND       PRES   REMARKS
MONTEVIDEO     MOCLDY    37  28  70 N23G29    29.65S
GRANITE FALLS  PTCLDY    33  28  81 W14       29.66S WCI  23
CANBY          PTCLDY    36  28  74 W17       29.68S
MARSHALL       CLOUDY    34  25  69 W12       29.66S WCI  25
REDWOOD FALLS  MOCLDY    35  27  72 W15       29.63S WCI  25
OLIVIA         CLOUDY    32  27  80 NW15      29.61S WCI  22
PIPESTONE      CLEAR     28  25  86 W7        29.68S WCI  21
WINDOM         CLEAR     32  27  80 W10       29.66S WCI  24
WORTHINGTON    CLEAR     32  21  64 W13       29.69S WCI  22
JACKSON        CLEAR     34  27  75 W13       29.67R WCI  25
TRACY          CLOUDY    35  28  75 W5        29.67S WCI  31
SLAYTON        CLEAR     32  26  80 CALM      29.68S
$$
MNZ065>067-074>077-082>085-091>093-211000-
   South Central Minnesota

CITY           SKY/WX    TMP DP  RH WIND       PRES   REMARKS
MANKATO        CLOUDY    36  27  69 W16       29.60R
NEW ULM        FAIR      34  27  75 W17       29.62S WCI  23
ST JAMES       CLEAR     36  27  69 W20G25    29.65R
FAIRMONT       CLEAR     36  25  64 W17G23    29.65R
GLENCOE        CLOUDY    37  32  84 W20G25    29.56S
FARIBAULT      CLOUDY    36  30  80 W16G23    29.56S
OWATONNA       CLOUDY    36  28  75 W15       29.57S
WASECA         CLOUDY    37  30  75 W16G22    29.60S
ALBERT LEA     CLOUDY    37  30  75 W12G18    29.60R
$$
MNZ078>079-086>088-094>096-211000-
   Southeast Minnesota

CITY           SKY/WX    TMP DP  RH WIND       PRES   REMARKS
ROCHESTER      MOCLDY    34  28  79 W22G29    29.54S WCI  22
RED WING       CLOUDY    37  27  65 NW13G18   29.51R
STANTON        CLOUDY    37  28  69 W14G22    29.53S
DODGE CENTER   CLOUDY    36  28  75 W20G28    29.54S
WINONA         LGT RAIN  36  32  87 W12G23    29.53S
AUSTIN         CLOUDY    36  28  75 W21G26    29.58R
PRESTON        CLOUDY    34  29  80 W20G29    29.55S WCI  23
$$
ABBREVIATIONS USED IN REMARKS
   TC - TEMPERATURES IN CELSIUS
  WCI - WIND CHILL INDEX
   HX - HEAT INDEX
  VSB - VISIBILITY
$$



USA.gov is the U.S. government's official web portal to all federal, state and local government web resources and services.